Tracking 19562 objects as of 24-Mar-2019
HD Live streaming from Space Station
objects crossing your sky now

HIMAWARI 1 (GMS 1)

Track HIMAWARI 1 (GMS 1) now!
HIMAWARI 1 (GMS 1) is classified as:


NORAD ID: 10143
Int'l Code: 1977-065A
Perigee: 36,026.3 km
Apogee: 36,139.1 km
Inclination: 12.4 °
Period: 1,450.9 minutes
Semi major axis: 42453 km
RCS: 4.3304 m2 (large)
Launch date: July 14, 1977
Source: Japan (JPN)
Launch site: AIR FORCE EASTERN TEST RANGE (AFETR)
aabbcc
Your satellite tracking list
Your tracking list is empty




NASA's NSSDC Master Catalog

Two Line Element Set (TLE):
1 10143U 77065A   19082.54472389 -.00000267  00000-0  00000+0 0  9991
2 10143  12.4002 319.8527 0013290 165.4075  10.5836  0.99249791 94981
Source of the keplerian elements: AFSPC